FlightSource - Aviation Photo Database

World Wide Airport Lookup


Search by ICAO
Or
Search by City

FlightSource.ca - Aviation Photo Database - Lungi International Airport Information
Airport Identification
Name: Lungi International Airport
ICAO: GFLL
IATA: FNA
Airport Location
City: Freetown
Region: N
Country: Sierra Leone
Continent: Africa
Latitude: 8.61644
Longitude: -13.1955
Airport Information
Type: Medium Airport
Elevation: 84 Feet ASL
Flight Status: GFLL
More Info: GFLL
Airport Weather    
Metar: GFLL 120400Z 03004KT 5000 HZ NSC 24/19 Q1009
TAF:


Advertisement